Weather in Szklarska Poreba

Poland     50°49′46″N   15°29′47″E
temp.,
°C
wind,
m/s
gust,
m/s
humid.,
%
clouds,
%
prec.,
mm/h
press.,
hPa
HPBL,
m
5 december, sun
sun501:00−4s2596100 1.9 1001204
04:00−3ssw1297100 2.1 100194
07:00−1wsw2798100 2.6 1002603
10:00−1wsw1398100 0.8 1004236
13:000wsw1396100 1.4 1005313
16:00−1nw129899 0.2 100697
19:00−1wnw1197100 0.3 100850
22:00−2nw1298100 0.1 1009159
6 december, mon
mon601:00−3nw1398100 0.3 1010186
04:00−2nnw239898 0.4 1010192
07:00−4nnw129894 0.8 1012152
10:00−3nw249178 0.3 1014430
13:00−3nnw348799 0.4 1014652
16:00−6n229775 0.3 101680
19:00−8n229863 0.4 101630
22:00−8n119780 0.1 101623
7 december, tue
tue701:00−7wnw119290 0.1 1014169
04:00−5s119499 0.0 101356
07:00−6ssw129797 0.1 101368
10:00−4s2293100 0.1 1013163
13:00−3s2290100 0.2 1012422
16:00−4s1297100 0.1 1013130
19:00−7sse119990 0.1 101312
22:00−7sse119990 0.0 101328
8 december, wed
wed801:00−6se129984 0.1 101269
04:00−5se259682 0.0 1009246
07:00−5sse259562 0.0 1009231
10:00−4sse3792100 0.0 1008348
13:00−3se3987100 0.0 1005466
16:00−3se41183100 0.0 1004580
19:00−3se51580100 0.0 10041099
22:00−4sse51395100 1.2 1003947
9 december, thu
thu901:00−4s41396100 2.5 1003875
04:00−4s4109699 1.1 1004798
07:00−4s41197100 2.1 1005572
10:00−3s399698 0.7 1006406
13:00−3s359585 1.0 1006346
16:00−3sse2497100 0.1 1006296
19:00−5e0198100 0.1 100628
22:00−6nne1192100 0.0 100513